Location: Aciu?a
(46.2833°N, 22.4500°E)
Time: 11:23:39
(UTC+00:00)

Cosmos 220 Rocket - Pass Details

Date: 25 October 2021
Orbit: 575 x 615 km, 74.0° (Epoch: 07 December)

Event Time Altitude Azimuth Distance (km) Brightness Sun altitude
Rises 17:03:38 0° 202° (SSW) 2,868 7.8 -17.4°
Reaches altitude 10° 17:05:52 10° 202° (SSW) 1,965 6.9 -17.8°
Maximum altitude 17:10:16 84° 290° (WNW) 619 4.0 -18.5°
Drops below altitude 10° 17:14:41 10° 21° (NNE) 1,962 6.4 -19.3°
Enters shadow 17:14:58 - 21° (NNE) 2,076 6.6 -19.4°
